sat.trackr.live / text

‹ back to catalog

STARLINK-34105

NORAD 63977 · 2025-099AB

PAYLOAD ACTIVE UNKNOWN

§ Identity

Operator
Country
US
Launch date
2025-05-13
Launch site
AFETR
Launch vehicle
Mass (kg)
RCS (m²)

Purposes: comms

External: N2YO · Heavens-Above · Gunter

§ Orbital elements

Epoch: 2026-09-20T09:30:26.639424Z

Period
94.27 min
Inclination
42.9993°
Eccentricity
0.0000806
Mean motion
15.27589122 rev/d
Perigee alt
482.5 km
Apogee alt
483.6 km
Semi-major
6,861.2 km
B*
4.2556e-4
RAAN
153.1870°
Arg perigee
29.5210°
Mean anomaly
330.5687°
Rev number
7,706

§ Raw data

STARLINK-341051 63977U 25099AB  26263.39614166  .00011470  00000+0  42556-3 0  99992 63977  42.9993 153.1870 0000806  29.5210 330.5687 15.27589122 77062

JSON: /api/v1/satellites/63977 · /tle

For live sub-satellite position, see the globe view (requires WebGL).

§ Visibility from observer

Set your observer location to see the next 7 days of passes ≥ 10°. The values pass through the URL so the page stays shareable.

No JS? Fill the form by hand. The geolocation button needs JavaScript.